Location: Bh?mavarapp?du
(16.7041°N, 80.6518°E)
Time: 08:05:37
(UTC+00:00)

Cosmos 494 Rocket - Pass Details

Date: 21 April 2021
Orbit: 741 x 771 km, 74.1° (Epoch: 06 May)

Event Time Altitude Azimuth Distance (km) Brightness Sun altitude
Rises 23:21:51 0° 342° (NNW) 3,215 7.2 -13.7°
Reaches altitude 10° 23:24:14 10° 340° (NNW) 2,284 6.4 -13.2°
Maximum altitude 23:29:22 67° 258° (WSW) 814 3.9 -12.0°
Drops below altitude 10° 23:34:27 10° 176° (S) 2,260 6.3 -10.8°
Sets 23:36:48 0° 173° (S) 3,179 7.1 -10.3°
